Okinawa, Japan

2:43 PM JST on February 21, 2018 (GMT +0900)
Kadena Air Base

Weather History for RODN - September, 2013

Change the Weather History Date:

Sunday, September 22, 2013

  Actual Average Record
Temperature  
Mean Temperature 82 °F -  
Max Temperature 87 °F 81 °F 88 °F (2010)
Min Temperature 78 °F 70 °F 66 °F (2000)
Cooling Degree Days 18    
Growing Degree Days 32 (Base 50)    
Moisture  
Dew Point 81 °F    
Average Humidity 95    
Maximum Humidity 100    
Minimum Humidity 78    
Precipitation  
Precipitation 0.18 in - - ()
Sea Level Pressure  
Sea Level Pressure 29.77 in    
Wind  
Wind Speed 11 mph ()    
Max Wind Speed 21 mph    
Max Gust Speed 30 mph    
Visibility 8.9 miles    
Events Rain    
Averages and records for this station are not official NWS values.
T = Trace of Precipitation, MM = Missing Value Source: Averaged Metar Reports

Daily Weather History Graph

Daily Weather History Graph

Search for Another Location

Airport or City:

Trip Planner

Search our weather history database for the weather conditions in past years. The results will help you decide how hot, cold, wet, or windy it might be!

Date:

Astronomy

Sep. 22, 2013 Rise Set
Actual Time 6:17 AM JST 6:25 PM JST
Civil Twilight 5:54 AM JST 6:48 PM JST
Nautical Twilight 5:27 AM JST 7:15 PM JST
Astronomical Twilight 5:00 AM JST 7:42 PM JST
Moon 8:12 PM JST (9/22) 8:41 AM JST (9/22)
Length of Visible Light 12h 54m
Length of Day
12h 08m
Waning Gibbous, 92% of the Moon is Illuminated
Sep 22
Waning Gibbous
Sep 27
Last Quarter
Oct 5
New
Oct 12
First Quarter
Oct 19
Full

Hourly Weather History & Observations

Time (JST) Temp. Heat Index Dew Point Humidity Pressure Visibility Wind Dir Wind Speed Gust Speed Precip Events Conditions
12:24 AM 82.4 °F 96.1 °F 82.4 °F 100% 29.75 in 10.0 mi East 10.4 mph - N/A   Mostly Cloudy
12:33 AM 82.4 °F 96.1 °F 82.4 °F 100% 29.76 in 10.0 mi East 8.1 mph - N/A   Mostly Cloudy
12:55 AM 82.4 °F 96.1 °F 82.4 °F 100% 29.75 in 10.0 mi East 10.4 mph - N/A   Mostly Cloudy
12:56 AM 82.4 °F 96.1 °F 82.4 °F 100% 29.75 in 10.0 mi East 9.2 mph - N/A   Mostly Cloudy
12:58 AM 81.7 °F 93.3 °F 81.7 °F 100% 29.77 in 10.0 mi East 10.4 mph - N/A   Mostly Cloudy
1:02 AM 82.4 °F 96.1 °F 82.4 °F 100% 29.75 in 10.0 mi East 9.2 mph - N/A   Mostly Cloudy
1:08 AM 82.4 °F 96.1 °F 82.4 °F 100% 29.75 in 10.0 mi East 9.2 mph - N/A   Mostly Cloudy
1:16 AM 82.4 °F 96.1 °F 82.4 °F 100% 29.74 in 10.0 mi East 8.1 mph - N/A   Mostly Cloudy
1:27 AM 82.4 °F 96.1 °F 82.4 °F 100% 29.74 in 10.0 mi East 15.0 mph - N/A   Scattered Clouds
1:58 AM 81.9 °F 94.0 °F 81.9 °F 100% 29.75 in 10.0 mi ESE 10.4 mph - N/A   Partly Cloudy
2:58 AM 81.7 °F 93.3 °F 81.7 °F 100% 29.74 in 10.0 mi East 9.2 mph - N/A   Clear
3:58 AM 81.9 °F 94.0 °F 81.9 °F 100% 29.75 in 10.0 mi East 8.1 mph - N/A   Partly Cloudy
4:52 AM 80.6 °F 89.3 °F 80.6 °F 100% 29.74 in 10.0 mi East 6.9 mph - N/A   Mostly Cloudy
4:58 AM 81.3 °F 92.0 °F 81.3 °F 100% 29.76 in 10.0 mi East 8.1 mph - N/A   Mostly Cloudy
5:10 AM 80.6 °F 89.3 °F 80.6 °F 100% 29.75 in 9.0 mi East 8.1 mph - N/A   Mostly Cloudy
5:11 AM 80.6 °F 89.3 °F 80.6 °F 100% 29.75 in 7.0 mi ESE 13.8 mph - N/A Rain Light Rain
5:14 AM 80.6 °F 89.3 °F 80.6 °F 100% 29.75 in 6.0 mi East 12.7 mph 23.0 mph N/A Rain Light Rain
5:19 AM 80.6 °F 89.3 °F 80.6 °F 100% 29.75 in 7.0 mi East 11.5 mph 23.0 mph N/A Rain Light Rain
5:21 AM 80.6 °F 89.3 °F 80.6 °F 100% 29.75 in 8.0 mi East 11.5 mph 23.0 mph N/A Rain Light Rain
5:23 AM 78.8 °F - 78.8 °F 100% 29.75 in 9.0 mi East 12.7 mph 23.0 mph N/A Rain Light Rain
5:25 AM 78.8 °F - 78.8 °F 100% 29.75 in 10.0 mi East 11.5 mph - N/A Rain Light Rain
5:27 AM 78.8 °F - 78.8 °F 100% 29.75 in 10.0 mi East 10.4 mph - N/A   Mostly Cloudy
5:29 AM 80.6 °F 89.3 °F 80.6 °F 100% 29.75 in 10.0 mi ENE 11.5 mph - N/A   Mostly Cloudy
5:31 AM 80.6 °F 89.3 °F 80.6 °F 100% 29.75 in 10.0 mi East 15.0 mph 20.7 mph N/A   Light Drizzle
5:35 AM 80.6 °F 89.3 °F 80.6 °F 100% 29.75 in 10.0 mi East 16.1 mph 20.7 mph N/A Rain Light Rain
5:38 AM 80.6 °F 89.3 °F 80.6 °F 100% 29.75 in 9.0 mi East 15.0 mph 20.7 mph N/A Rain Light Rain
5:45 AM 80.6 °F 89.3 °F 80.6 °F 100% 29.75 in 8.0 mi East 11.5 mph - N/A Rain Light Rain
5:50 AM 80.6 °F 89.3 °F 80.6 °F 100% 29.76 in 9.0 mi ESE 10.4 mph - N/A Rain Light Rain
5:51 AM 80.6 °F 89.3 °F 80.6 °F 100% 29.76 in 8.0 mi East 10.4 mph - N/A Rain Light Rain
5:53 AM 80.6 °F 89.3 °F 80.6 °F 100% 29.76 in 4.0 mi East 15.0 mph - N/A Rain Light Rain
5:54 AM 80.6 °F 89.3 °F 80.6 °F 100% 29.76 in 3.0 mi East 15.0 mph - N/A Rain Light Rain
5:55 AM 80.6 °F 89.3 °F 80.6 °F 100% 29.75 in 2.5 mi East 15.0 mph - N/A Rain Heavy Rain
5:58 AM 79.9 °F - 79.9 °F 100% 29.78 in 2.5 mi East 15.0 mph - 0.13 in Rain Heavy Rain
6:03 AM 80.6 °F 89.3 °F 80.6 °F 100% 29.76 in 2.5 mi East 8.1 mph 18.4 mph N/A Rain Light Rain
6:04 AM 80.6 °F 89.3 °F 80.6 °F 100% 29.76 in 3.0 mi East 9.2 mph - N/A Rain Light Rain
6:06 AM 80.6 °F 89.3 °F 80.6 °F 100% 29.76 in 7.0 mi East 12.7 mph - N/A Rain Light Rain
6:07 AM 80.6 °F 89.3 °F 80.6 °F 100% 29.76 in 9.0 mi East 11.5 mph - N/A Rain Light Rain
6:10 AM 80.6 °F 89.3 °F 80.6 °F 100% 29.76 in 10.0 mi East 13.8 mph - N/A   Light Drizzle
6:12 AM 80.6 °F 89.3 °F 80.6 °F 100% 29.76 in 10.0 mi East 13.8 mph - N/A   Light Drizzle
6:13 AM 80.6 °F 89.3 °F 80.6 °F 100% 29.76 in 10.0 mi East 11.5 mph - N/A   Overcast
6:18 AM 80.6 °F 89.3 °F 80.6 °F 100% 29.76 in 10.0 mi East 12.7 mph - N/A   Overcast
6:21 AM 80.6 °F 89.3 °F 80.6 °F 100% 29.76 in 10.0 mi East 12.7 mph - N/A   Overcast
6:41 AM 80.6 °F 89.3 °F 80.6 °F 100% 29.75 in 10.0 mi East 11.5 mph - N/A   Mostly Cloudy
6:50 AM 80.6 °F 89.3 °F 80.6 °F 100% 29.75 in 10.0 mi East 11.5 mph - N/A   Scattered Clouds
6:58 AM 80.6 °F 89.3 °F 80.6 °F 100% 29.77 in 10.0 mi East 11.5 mph - 0.01 in   Scattered Clouds
7:58 AM 81.7 °F 93.3 °F 81.7 °F 100% 29.79 in 10.0 mi East 12.7 mph - N/A   Partly Cloudy
8:58 AM 83.3 °F 98.0 °F 82.0 °F 96% 29.80 in 10.0 mi East 15.0 mph - N/A   Clear
9:34 AM 86.0 °F 104.7 °F 82.4 °F 89% 29.78 in 10.0 mi East 17.3 mph 24.2 mph N/A   Mostly Cloudy
9:36 AM 86.0 °F 104.7 °F 82.4 °F 89% 29.78 in 10.0 mi East 17.3 mph 24.2 mph N/A   Scattered Clouds
9:47 AM 86.0 °F 104.7 °F 82.4 °F 89% 29.78 in 10.0 mi ESE 16.1 mph 24.2 mph N/A Rain Light Rain
9:49 AM 86.0 °F 104.7 °F 82.4 °F 89% 29.78 in 10.0 mi East 16.1 mph 24.2 mph N/A   Scattered Clouds
9:58 AM 85.8 °F 105.2 °F 82.9 °F 91% 29.80 in 10.0 mi ESE 19.6 mph 26.5 mph 0.00 in   Scattered Clouds
10:58 AM 87.3 °F 106.9 °F 82.4 °F 85% 29.80 in 10.0 mi ESE 16.1 mph 25.3 mph N/A   Scattered Clouds
11:58 AM 87.8 °F 108.2 °F 82.4 °F 84% 29.78 in 10.0 mi East 20.7 mph 28.8 mph N/A   Partly Cloudy
12:58 PM 87.6 °F 107.5 °F 82.2 °F 84% 29.78 in 10.0 mi East 13.8 mph 23.0 mph N/A   Mostly Cloudy
1:00 PM 86.0 °F 104.7 °F 82.4 °F 89% 29.77 in 10.0 mi East 18.4 mph 23.0 mph N/A   Mostly Cloudy
1:04 PM 86.0 °F 104.7 °F 82.4 °F 89% 29.77 in 10.0 mi East 17.3 mph 23.0 mph N/A   Mostly Cloudy
1:05 PM 86.0 °F 104.7 °F 82.4 °F 89% 29.77 in 10.0 mi East 17.3 mph 23.0 mph N/A   Mostly Cloudy
1:17 PM 87.8 °F 108.2 °F 82.4 °F 84% 29.77 in 10.0 mi East 20.7 mph 26.5 mph N/A   Mostly Cloudy
1:58 PM 87.8 °F 104.3 °F 80.1 °F 78% 29.78 in 10.0 mi East 19.6 mph - N/A   Clear
2:58 PM 86.2 °F 102.0 °F 80.6 °F 83% 29.77 in 10.0 mi East 19.6 mph 29.9 mph N/A   Scattered Clouds
3:44 PM 86.0 °F 99.3 °F 78.8 °F 79% 29.74 in 10.0 mi East 18.4 mph 27.6 mph N/A   Mostly Cloudy
3:47 PM 86.0 °F 99.3 °F 78.8 °F 79% 29.74 in 10.0 mi East 17.3 mph 26.5 mph N/A   Scattered Clouds
3:49 PM 86.0 °F 99.3 °F 78.8 °F 79% 29.74 in 10.0 mi East 18.4 mph 26.5 mph N/A   Mostly Cloudy
3:50 PM 86.0 °F 99.3 °F 78.8 °F 79% 29.74 in 10.0 mi East 19.6 mph 26.5 mph N/A   Mostly Cloudy
3:58 PM 86.5 °F 100.4 °F 78.8 °F 78% 29.77 in 10.0 mi East 20.7 mph 26.5 mph N/A   Scattered Clouds
4:58 PM 85.8 °F 100.3 °F 79.7 °F 82% 29.78 in 10.0 mi East 18.4 mph 27.6 mph N/A   Scattered Clouds
5:58 PM 83.8 °F 95.1 °F 78.6 °F 84% 29.80 in 10.0 mi East 17.3 mph - N/A   Partly Cloudy
6:58 PM 82.2 °F 91.0 °F 77.5 °F 86% 29.81 in 10.0 mi East 10.4 mph - N/A   Clear
7:58 PM 81.9 °F 90.0 °F 77.4 °F 86% 29.83 in 10.0 mi East 11.5 mph - N/A   Partly Cloudy
8:58 PM 81.7 °F 90.5 °F 78.6 °F 90% 29.83 in 10.0 mi East 11.5 mph - N/A   Scattered Clouds
9:19 PM 82.4 °F 92.4 °F 78.8 °F 89% 29.81 in 10.0 mi ENE 11.5 mph - N/A Rain Light Rain
9:28 PM 80.6 °F 89.3 °F 80.6 °F 100% 29.82 in 7.0 mi East 15.0 mph - N/A Rain Light Rain
9:39 PM 80.6 °F 89.3 °F 80.6 °F 100% 29.81 in 9.0 mi East 11.5 mph - N/A Rain Light Rain
9:48 PM 80.6 °F 89.3 °F 80.6 °F 100% 29.81 in 10.0 mi East 8.1 mph - N/A Rain Light Rain
9:54 PM 80.6 °F 89.3 °F 80.6 °F 100% 29.82 in 7.0 mi East 17.3 mph 25.3 mph N/A Rain Light Rain
9:56 PM 80.6 °F 88.1 °F 78.8 °F 94% 29.82 in 5.0 mi East 16.1 mph 25.3 mph N/A Rain Light Rain
9:58 PM 80.1 °F 87.2 °F 79.7 °F 99% 29.84 in 5.0 mi East 15.0 mph 25.3 mph 0.04 in Rain Light Rain
10:00 PM 78.8 °F - 78.8 °F 100% 29.81 in 5.0 mi East 11.5 mph 25.3 mph N/A Rain Light Rain
10:05 PM 78.8 °F - 78.8 °F 100% 29.82 in 7.0 mi East 11.5 mph 25.3 mph N/A Rain Light Rain
10:06 PM 78.8 °F - 78.8 °F 100% 29.82 in 9.0 mi East 10.4 mph - N/A Rain Light Rain
10:07 PM 78.8 °F - 78.8 °F 100% 29.82 in 10.0 mi East 10.4 mph - N/A   Mostly Cloudy
10:58 PM 80.1 °F 87.4 °F 80.1 °F 100% 29.83 in 10.0 mi East 10.4 mph - 0.00 in   Partly Cloudy
11:58 PM 79.5 °F - 79.3 °F 99% 29.84 in 10.0 mi East 12.7 mph - N/A   Partly Cloudy